[[{"header":{"parameterUnit":"m.s-1","parameterCategory":1,"la1":30.2991,"la2":30.254,"lo1":-89.0895,"lo2":-89.0444,"dy":0.0017,"dx":0.0017,"nx":28,"ny":28,"refTime":"2025-01-29T03:00:00:Z","depth":0,"parameterNumber":2,"parameterNumberName":"U-component_of_WINDS"},"data":[0,0,0,0,0,0,0,0,0,0,0,0,0,0,0,0,0,0,0,0,0,0,0,0,0,0,0,0,0,0,0,0,0,0,0,0,0,0,0,0,0,0,0,0,0,0,0,0,0,0,0,0,0,0,0,0,0,0,1.5208,1.5209,0,1.5282,1.5283,1.5284,1.5285,1.5284,1.5283,1.5282,1.5358,1.5361,1.5364,0,0,0,0,0,0,0,0,0,0,0,0,0,1.5064,1.5067,1.5208,1.5209,1.521,1.5282,1.5283,1.5284,1.5285,1.5284,1.5283,1.5282,1.5357,1.536,1.5364,0,0,0,0,0,0,0,0,0,0,0,0,0,1.5132,1.5068,1.5208,1.5219,1.5221,1.5282,1.5283,1.5285,1.5285,1.5284,1.5283,1.5281,1.5356,1.536,1.5364,1.5419,0,0,1.5378,1.5379,0,0,0,0,0,0,0,0,1.5128,1.5137,1.5216,1.5218,1.522,1.5273,1.5261,1.533,1.5286,1.5261,1.5282,1.5281,1.5331,1.5337,1.5354,1.5423,1.5426,1.5378,1.5381,1.5382,1.5384,0,0,0,0,0,0,0,1.5123,1.5134,1.5237,1.5217,1.522,1.522,1.5228,1.5274,1.5303,1.5263,1.5263,1.5272,1.5332,1.535,1.5356,1.5427,1.5378,1.5382,1.5384,1.5386,1.5544,1.5545,0,0,0,0,0,0,1.5116,1.513,1.5235,1.524,1.517,1.5223,1.5232,1.5257,1.5302,1.5308,1.5273,1.5272,1.5343,1.5351,1.5359,1.5425,1.5382,1.5386,1.5389,1.5542,1.5544,1.5546,0,0,0,0,0,0,1.5113,1.5126,1.5232,1.5185,1.5198,1.5227,1.5256,1.526,1.5278,1.531,1.5315,1.5287,1.5342,1.5352,1.5404,1.5428,1.5388,1.5392,1.554,1.5543,1.5545,1.5559,0,0,0,0,0,0,1.5109,1.5125,1.5146,1.5185,1.5201,1.5277,1.5257,1.5262,1.5286,1.5285,1.5324,1.5329,1.5342,1.5398,1.5408,1.5433,1.5396,1.5538,1.5541,1.5544,1.5557,1.5562,1.5566,0,0,0,0,0,1.5104,1.5147,1.5147,1.516,1.5228,1.5278,1.5287,1.5301,1.5288,1.5309,1.533,1.5328,1.5424,1.5403,1.5415,1.5441,1.5537,1.5541,1.5544,1.5555,1.5561,1.5566,0,0,0,0,0,0,1.511,1.5153,1.5153,1.521,1.5241,1.5278,1.5306,1.5307,1.5342,1.5339,1.5355,1.5364,1.5415,1.5433,1.541,1.5496,1.5479,1.5485,1.5482,1.5489,1.5493,1.5487,1.5399,0,0,0,0,0,1.5118,1.5155,1.519,1.5237,1.5252,1.5276,1.5299,1.5307,1.5339,1.5351,1.5376,1.5406,1.5443,1.5467,1.5503,1.556,1.5568,1.5584,1.5588,1.5592,1.5597,1.5627,1.5634,1.5558,1.5558,1.5558,0,0,1.5135,1.5163,1.5185,1.5239,1.5264,1.5301,1.5287,1.5328,1.5355,1.5357,1.5407,1.5426,1.5461,1.5516,1.5541,1.5533,1.562,1.5597,1.5599,1.5602,1.5632,1.5639,1.5645,1.556,1.556,1.5559,0,0,1.5185,1.521,1.5251,1.5276,1.5313,1.5329,1.5339,1.5376,1.5389,1.5439,1.5441,1.5474,1.5538,1.5562,1.5583,1.5642,1.5641,1.5653,1.5677,1.5706,1.5712,1.5718,1.5738,1.5745,1.5658,1.5658,1.5658,0,1.5201,1.5258,1.5272,1.5313,1.5336,1.534,1.5381,1.5405,1.5451,1.5467,1.5457,1.5537,1.5561,1.562,1.5634,1.5651,1.5663,1.5648,1.571,1.5716,1.5721,1.574,1.5748,1.5659,1.5659,1.5659,1.5659,0,1.5275,1.5314,1.5343,1.5388,1.5415,1.5456,1.5476,1.5501,1.5507,1.5524,1.5575,1.5604,1.5645,1.566,1.5666,1.572,1.5714,1.5707,1.5689,1.5729,1.5748,1.5755,1.566,1.566,1.566,1.5659,0,0,1.533,1.5383,1.5393,1.5413,1.5454,1.5485,1.5525,1.5566,1.5587,1.5619,1.5652,1.5706,1.57,1.5724,1.5733,1.5759,1.5802,1.5749,1.575,1.5757,1.5862,1.5866,1.5874,1.5802,1.5803,1.5805,1.5859,0,1.5383,1.5456,1.547,1.5533,1.5569,1.5573,1.5608,1.5637,1.5653,1.5686,1.5704,1.5741,1.5731,1.5745,1.5771,1.5791,1.5823,1.5787,1.5833,1.5834,1.5823,1.5884,1.5888,1.5938,1.5866,1.5867,1.5868,0,1.5455,1.5489,1.5555,1.5591,1.5606,1.5638,1.5676,1.5707,1.5739,1.5749,1.5776,1.5782,1.5823,1.5804,1.5861,1.5837,1.5856,1.5869,1.5871,1.5875,1.5853,1.5888,1.5954,1.5961,1.588,1.5879,1.5878,0,1.5487,1.5549,1.5597,1.5614,1.5657,1.5679,1.5698,1.5729,1.5752,1.5785,1.58,1.5838,1.5858,1.5886,1.5902,1.5887,1.5958,1.594,1.5966,1.5966,1.598,1.5979,1.6049,1.5995,1.5995,1.5994,1.5994,0,1.5544,1.5585,1.5612,1.5641,1.5686,1.5702,1.5745,1.5764,1.5791,1.5824,1.583,1.586,1.5879,1.5912,1.5925,1.5969,1.5979,1.5987,1.599,1.5986,1.5985,1.5999,1.5995,1.5996,1.5996,1.5996,1.5995,0,1.5588,1.5608,1.5659,1.5696,1.5706,1.5737,1.5768,1.5796,1.5813,1.5853,1.5864,1.589,1.5928,1.5947,1.5995,1.6004,1.6054,1.6055,1.6043,1.6044,1.6069,1.6066,1.6149,1.616,1.6099,1.61,1.61,0,1.5622,1.5653,1.5693,1.5715,1.5735,1.577,1.5794,1.5811,1.5835,1.5874,1.5897,1.5936,1.5968,1.603,1.6052,1.6089,1.609,1.6117,1.6096,1.6091,1.6089,1.6087,1.6089,1.612,1.6121,1.6121,1.6122,0,1.5681,1.569,1.5724,1.5761,1.5789,1.5819,1.5849,1.5867,1.5888,1.5915,1.5955,1.598,1.6029,1.6067,1.6105,1.6124,1.6126,1.6128,1.6136,1.6132,1.6123,1.6127,1.6052,1.6126,1.6126,1.6125,1.6125,1.6125,1.5721,1.5748,1.578,1.5818,1.5842,1.5869,1.5897,1.5917,1.5951,1.5992,1.6,1.6041,1.6072,1.6124,1.6144,1.6177,1.6171,1.6182,1.6185,1.6187,1.6188,1.6119,1.6184,1.6184,1.6184,1.6184,1.6183,0,1.5779,1.58,1.5834,1.5876,1.5905,1.5905,1.5938,1.5962,1.5999,1.6028,1.6059,1.6104,1.6141,1.6167,1.6204,1.6225,1.6227,1.6235,1.6233,1.6237,1.6192,1.6181,1.6232,1.6232,1.6232,1.6232,1.6232,1.6232,1.5813,1.5859,1.5871,1.5928,1.5949,1.599,1.6008,1.6034,1.6057,1.6107,1.6138,1.6154,1.6182,1.6221,1.6255,1.6262,1.6275,1.6282,1.6288,1.6245,1.624,1.6235,1.6225,1.6285,1.6285,1.633,1.6331,1.6331]},{"header":{"parameterUnit":"m.s-1","parameterCategory":1,"la1":30.2991,"la2":30.254,"lo1":-89.0895,"lo2":-89.0444,"dy":0.0017,"dx":0.0017,"nx":28,"ny":28,"refTime":"2025-01-29T03:00:00:Z","depth":0,"parameterNumber":3,"parameterNumberName":"V-component_of_WINDS"},"data":[0,0,0,0,0,0,0,0,0,0,0,0,0,0,0,0,0,0,0,0,0,0,0,0,0,0,0,0,0,0,0,0,0,0,0,0,0,0,0,0,0,0,0,0,0,0,0,0,0,0,0,0,0,0,0,0,0,0,1.0385,1.0384,0,1.0347,1.0346,1.0346,1.031,1.0309,1.0309,1.0309,1.0268,1.0267,1.0267,0,0,0,0,0,0,0,0,0,0,0,0,0,1.0424,1.0423,1.0385,1.0384,1.0384,1.0347,1.0346,1.0346,1.031,1.0309,1.0309,1.0308,1.0268,1.0267,1.0266,0,0,0,0,0,0,0,0,0,0,0,0,0,1.0399,1.0423,1.0385,1.0361,1.0359,1.0347,1.0346,1.0346,1.031,1.0309,1.0309,1.0308,1.0268,1.0267,1.0266,1.0274,0,0,1.0263,1.0263,0,0,0,0,0,0,0,0,1.04,1.0397,1.0365,1.0363,1.036,1.0332,1.0345,1.0321,1.031,1.0329,1.0309,1.0308,1.029,1.0287,1.0281,1.0272,1.027,1.0263,1.0263,1.0262,1.0262,0,0,0,0,0,0,0,1.0402,1.0399,1.037,1.0365,1.0362,1.0352,1.0348,1.034,1.0313,1.0327,1.0324,1.032,1.0288,1.0282,1.028,1.0269,1.0263,1.0262,1.0262,1.0261,1.0263,1.0264,0,0,0,0,0,0,1.0407,1.04,1.0371,1.0368,1.0379,1.0352,1.0347,1.0342,1.0313,1.0308,1.0321,1.0319,1.0284,1.0281,1.0278,1.0285,1.0262,1.0261,1.0261,1.0263,1.0263,1.0264,0,0,0,0,0,0,1.0408,1.0405,1.0372,1.0384,1.0379,1.0352,1.0347,1.0342,1.0336,1.0309,1.0304,1.032,1.0284,1.028,1.0275,1.0283,1.0261,1.026,1.0262,1.0263,1.0264,1.0298,0,0,0,0,0,0,1.041,1.0406,1.0409,1.0384,1.0378,1.037,1.0347,1.0341,1.0334,1.0331,1.0307,1.0302,1.0283,1.0277,1.0274,1.0281,1.0259,1.0261,1.0262,1.0263,1.0296,1.03,1.0304,0,0,0,0,0,1.0411,1.042,1.0409,1.0406,1.0382,1.0371,1.0368,1.0346,1.0335,1.0338,1.032,1.0303,1.0283,1.0277,1.0273,1.028,1.026,1.0262,1.0263,1.0295,1.0299,1.0304,0,0,0,0,0,0,1.0446,1.0416,1.0404,1.0405,1.0391,1.0365,1.0368,1.0352,1.034,1.0338,1.0311,1.0306,1.0304,1.0291,1.0285,1.0285,1.0269,1.027,1.0294,1.0298,1.0302,1.0305,1.0258,0,0,0,0,0,1.0453,1.0448,1.0422,1.0425,1.0419,1.0395,1.0389,1.0374,1.0358,1.0351,1.0334,1.0318,1.0308,1.0303,1.0292,1.0294,1.0288,1.0297,1.0301,1.0304,1.0305,1.0305,1.0309,1.0269,1.0269,1.0269,0,0,1.0469,1.0452,1.045,1.0432,1.0419,1.0413,1.039,1.0385,1.038,1.035,1.0345,1.0332,1.0312,1.0311,1.031,1.0301,1.0315,1.0306,1.0309,1.0308,1.0307,1.0311,1.0314,1.027,1.027,1.027,0,0,1.0495,1.0482,1.0483,1.0471,1.0452,1.0436,1.0436,1.0413,1.0403,1.0397,1.0375,1.0368,1.0352,1.0339,1.0331,1.0351,1.0335,1.0349,1.0368,1.0368,1.0371,1.0374,1.0381,1.0384,1.035,1.035,1.035,0,1.0517,1.0508,1.0485,1.0482,1.0474,1.0448,1.0448,1.0437,1.0416,1.0411,1.0401,1.038,1.0365,1.036,1.0365,1.0359,1.0358,1.0351,1.0373,1.0375,1.0377,1.0384,1.0387,1.0352,1.0351,1.0351,1.0351,0,1.0536,1.053,1.0533,1.0514,1.0506,1.0505,1.0481,1.0476,1.0461,1.0446,1.044,1.0421,1.0406,1.0404,1.0389,1.0397,1.0392,1.0378,1.0361,1.0383,1.0389,1.0392,1.0354,1.0354,1.0353,1.0353,0,0,1.0583,1.0551,1.0553,1.0543,1.0521,1.0515,1.0512,1.0498,1.0494,1.048,1.0477,1.0463,1.045,1.044,1.0424,1.0424,1.0441,1.0409,1.0409,1.0416,1.0448,1.0459,1.0463,1.043,1.043,1.043,1.045,0,1.0605,1.0599,1.0579,1.0578,1.0572,1.0547,1.0544,1.0529,1.0515,1.0507,1.049,1.0481,1.0464,1.0458,1.0457,1.0439,1.0447,1.0438,1.0426,1.0426,1.0432,1.0466,1.0477,1.0497,1.0452,1.0452,1.0453,0,1.0631,1.0619,1.0619,1.0596,1.0592,1.059,1.0576,1.0569,1.0551,1.054,1.053,1.0511,1.0506,1.049,1.0481,1.0475,1.0469,1.046,1.046,1.0458,1.0441,1.0465,1.0502,1.0506,1.0456,1.0456,1.0456,0,1.0665,1.0649,1.0647,1.064,1.0613,1.0612,1.0601,1.0583,1.0575,1.0562,1.0557,1.0543,1.0536,1.0525,1.0503,1.0493,1.0497,1.0479,1.0488,1.0488,1.049,1.049,1.0527,1.0486,1.0486,1.0486,1.0486,0,1.0693,1.0693,1.0662,1.0661,1.066,1.0636,1.0636,1.0622,1.0606,1.0601,1.0577,1.0573,1.0544,1.0536,1.0518,1.0514,1.0511,1.0502,1.0497,1.0504,1.0505,1.05,1.0498,1.0486,1.0486,1.0486,1.0486,0,1.0732,1.0711,1.0706,1.0681,1.0675,1.0676,1.0654,1.0651,1.0635,1.0629,1.0626,1.06,1.0589,1.0566,1.0549,1.0537,1.0537,1.0529,1.0543,1.0541,1.055,1.055,1.0585,1.0588,1.0545,1.0545,1.0546,0,1.0751,1.0751,1.0726,1.0721,1.0711,1.0703,1.0696,1.0671,1.0665,1.0644,1.0644,1.0631,1.062,1.0604,1.0583,1.057,1.0561,1.0574,1.0559,1.0566,1.0561,1.0562,1.0561,1.0578,1.0578,1.0579,1.0579,0,1.0787,1.0776,1.0767,1.0754,1.0746,1.0734,1.0721,1.0719,1.0691,1.0684,1.0673,1.0665,1.0647,1.0635,1.0618,1.0606,1.0588,1.0584,1.0586,1.0593,1.0601,1.0597,1.0553,1.0584,1.0583,1.0583,1.0583,1.0583,1.0816,1.0815,1.0797,1.0787,1.0775,1.0764,1.076,1.0743,1.0734,1.0718,1.0704,1.0694,1.0676,1.0652,1.064,1.0632,1.0623,1.0625,1.0625,1.0626,1.0629,1.0603,1.0629,1.0629,1.0628,1.0628,1.0628,0,1.0851,1.0838,1.0829,1.0812,1.0805,1.0789,1.0774,1.0768,1.076,1.0745,1.0734,1.0722,1.0709,1.0688,1.0674,1.0671,1.0662,1.0668,1.0668,1.0665,1.0638,1.0638,1.0675,1.0675,1.0675,1.0675,1.0675,1.0675,1.0868,1.0865,1.0853,1.0843,1.083,1.0821,1.0814,1.0803,1.079,1.0777,1.0767,1.0753,1.0735,1.072,1.0707,1.0701,1.0697,1.0706,1.0697,1.0672,1.0667,1.0663,1.0663,1.0705,1.0705,1.0725,1.0725,1.0725]}]]